Retour au catalogue

CZ-4 DEB

ActifSSO
NORAD 26142·DEBRIS·🇨🇳 China

Lancé Oct 14, 1999 depuis Taiyuan Satellite Launch Center

Loading…

Prochains Passages (prochaines 24 heures)

TLE

FraisSource: Space-Track

Époque: Sep 14, 2026, 03:11 UTC

1 26142U 99057AE  26257.13298103  .00000244  00000-0  17017-3 0  9993
2 26142  98.7140 133.1813 0295515 255.2874 261.9584 13.87962023336756

Suivez CZ-4 DEB en temps réel avec AllMySat

Download on the App Store